Voltar ao catálogo

STARLINK-31530

AtivoComunicaçõesVLEO
NORAD 59322·PAYLOAD·🇺🇸 United States

Lançado Mar 25, 2024 de Cape Canaveral Space Force Station

Loading…

Próximas Passagens (próximas 24 horas)

TLE

AtualizadoSource: CelesTrak SupGP

Época: Sep 14, 2026, 21:31 UTC

1 59322C 24057C   26257.89701389  .00323920  00000+0  77608-3 0  2572
2 59322  42.9786 131.0336 0026786 242.3121  95.8304 15.94686149    13

Acompanhe STARLINK-31530 em tempo real com AllMySat

Download on the App Store